Imperial, CA

10:43 AM PDT on March 25, 2017 (GMT -0700)
Imperial County

Weather History for KIPL - March, 2014

Change the Weather History Date:

Wednesday, March 26, 2014

  Actual Average Record
Temperature  
Mean Temperature 68 °F -  
Max Temperature 75 °F 79 °F 98 °F (1988)
Min Temperature 60 °F 52 °F 41 °F (1977)
Cooling Degree Days 2    
Growing Degree Days 18 (Base 50)    
Moisture  
Dew Point 42 °F    
Average Humidity 42    
Maximum Humidity 56    
Minimum Humidity 27    
Precipitation  
Precipitation 0.00 in - - ()
Sea Level Pressure  
Sea Level Pressure 29.82 in    
Wind  
Wind Speed 21 mph (WSW)    
Max Wind Speed 26 mph    
Max Gust Speed 38 mph    
Visibility 10 miles    
Events      
Averages and records for this station are not official NWS values.
T = Trace of Precipitation, MM = Missing Value Source: NWS Daily Summary

Daily Weather History Graph

Daily Weather History Graph

Search for Another Location

Airport or City:

Trip Planner

Search our weather history database for the weather conditions in past years. The results will help you decide how hot, cold, wet, or windy it might be!

Date:

Astronomy

Mar. 26, 2014 Rise Set
Actual Time 6:38 AM PDT 6:58 PM PDT
Civil Twilight 6:13 AM PDT 7:22 PM PDT
Nautical Twilight 5:44 AM PDT 7:51 PM PDT
Astronomical Twilight 5:15 AM PDT 8:21 PM PDT
Moon 3:36 AM PDT (3/26) 2:54 PM PDT (3/26)
Length of Visible Light 13h 09m
Length of Day
12h 20m
Waning Crescent, 21% of the Moon is Illuminated
Mar 26
Waning Crescent
Mar 30
New
Apr 7
First Quarter
Apr 15
Full
Apr 22
Last Quarter

Hourly Weather History & Observations

Time (PDT) Temp. Dew Point Humidity Pressure Visibility Wind Dir Wind Speed Gust Speed Precip Events Conditions
12:53 AM 66.0 °F 42.1 °F 42% 29.76 in 10.0 mi West 21.9 mph 32.2 mph N/A   Clear
1:53 AM 64.0 °F 43.0 °F 46% 29.78 in 10.0 mi West 25.3 mph 33.4 mph N/A   Clear
2:53 AM 63.0 °F 43.0 °F 48% 29.79 in 10.0 mi WSW 20.7 mph 28.8 mph N/A   Clear
3:53 AM 62.1 °F 43.0 °F 50% 29.76 in 10.0 mi WSW 23.0 mph 31.1 mph N/A   Clear
4:53 AM 61.0 °F 44.1 °F 54% 29.77 in 10.0 mi WSW 19.6 mph - N/A   Clear
5:53 AM 61.0 °F 45.0 °F 56% 29.79 in 10.0 mi WSW 19.6 mph - N/A   Clear
6:53 AM 61.0 °F 45.0 °F 56% 29.81 in 10.0 mi WSW 15.0 mph - N/A   Clear
7:53 AM 63.0 °F 46.0 °F 54% 29.82 in 10.0 mi WSW 16.1 mph 26.5 mph N/A   Clear
8:53 AM 66.9 °F 45.0 °F 45% 29.84 in 10.0 mi WSW 17.3 mph 29.9 mph N/A   Clear
9:53 AM 69.1 °F 43.0 °F 39% 29.84 in 10.0 mi West 13.8 mph 24.2 mph N/A   Clear
10:53 AM 71.1 °F 41.0 °F 34% 29.86 in 8.0 mi WSW 23.0 mph 32.2 mph N/A   Partly Cloudy
11:53 AM 73.0 °F 41.0 °F 31% 29.85 in 10.0 mi WSW 19.6 mph 31.1 mph N/A   Clear
12:20 PM 73.9 °F 41.0 °F 30% 29.84 in 6.0 mi WSW 24.2 mph 32.2 mph N/A   Haze
12:53 PM 75.0 °F 39.9 °F 28% 29.84 in 7.0 mi WSW 26.5 mph 33.4 mph N/A   Partly Cloudy
1:53 PM 73.9 °F 37.9 °F 27% 29.82 in 10.0 mi West 15.0 mph 32.2 mph N/A   Mostly Cloudy
2:53 PM 75.0 °F 42.1 °F 31% 29.81 in 9.0 mi WSW 24.2 mph 36.8 mph N/A   Partly Cloudy
3:53 PM 73.0 °F 39.9 °F 30% 29.80 in 10.0 mi WSW 24.2 mph 35.7 mph N/A   Clear
4:53 PM 71.1 °F 42.1 °F 35% 29.79 in 10.0 mi WSW 26.5 mph 34.5 mph N/A   Clear
5:53 PM 69.1 °F 44.1 °F 40% 29.79 in 9.0 mi WSW 25.3 mph 38.0 mph N/A   Clear
6:53 PM 64.9 °F 41.0 °F 42% 29.81 in 10.0 mi WSW 24.2 mph 35.7 mph N/A   Clear
7:53 PM 63.0 °F 39.9 °F 43% 29.83 in 10.0 mi WSW 19.6 mph 27.6 mph N/A   Clear
8:53 PM 62.1 °F 39.0 °F 43% 29.87 in 10.0 mi WSW 15.0 mph - N/A   Clear
9:53 PM 61.0 °F 41.0 °F 48% 29.88 in 10.0 mi WSW 17.3 mph - N/A   Clear
10:53 PM 60.1 °F 41.0 °F 49% 29.88 in 10.0 mi WSW 15.0 mph - N/A   Clear
11:53 PM 60.1 °F 42.1 °F 51% 29.89 in 10.0 mi West 13.8 mph 25.3 mph N/A   Clear